Regional Weather Roundup
Issued by NWS State College, PA

Home | Current Version | Previous Version | Text Only | Print | Product List | Glossary Off
Versions: 1 2 3 4 5 6 7 8 9 10 11 12 13 14 15 16 17 18 19 20 21 22 23 24 25 26 27 28 29 30 31 32 33 34 35 36 37 38 39 40 41 42 43 44 45 46 47 48 49 50

000
ASUS41 KCTP 252103
RWRCTP
NATIONAL WEATHER SERVICE STATE COLLEGE PA
500 PM EDT MON SEP 25 2017

Note: "fair" indicates few or no clouds below 12,000 feet with no
significant weather and/or obstructions to visibility.

* = STATION THAT DOES NOT REPORT PRECIPITATION /E.G. RAIN...SNOW...ETC/
    THUNDER OR FOG.

PAZ002>004-007>009-013>016-020>023-029>032-252200-
WESTERN PENNSYLVANIA

CITY           SKY/WX    TMP DP  RH WIND       PRES   REMARKS
ERIE           MOSUNNY   83  68  60 NE7       30.03F
MEADVILLE      MOSUNNY   87  63  44 VRB3      30.06F
FRANKLIN*      MOSUNNY   84  64  51 E3        30.07F
NEW CASTLE     FAIR      88  64  44 E5        30.04F
BEAVER COUNTY  SUNNY     88  59  37 SE5       30.04F
BUTLER*        MOSUNNY   85  63  47 E3        30.05F
PITTSBURGH INT CLOUDY    87  59  38 SW3       30.04S
PITTSBURGH     MOSUNNY   85  62  46 SE3       30.04S
INDIANA*       SUNNY     86  66  51 NW5       30.08S
LATROBE        SUNNY     84  66  54 CALM      30.05F
WASHINGTON CO* MOSUNNY   84  64  51 CALM      30.05S
$$

PAZ004>006-010>012-017>019-024>028-033>037-041-042-045-046-049>053-252200-
CENTRAL PENNSYLVANIA

CITY           SKY/WX    TMP DP  RH WIND       PRES   REMARKS
BRADFORD       MOSUNNY   84  61  45 CALM      30.10F
DUBOIS         MOSUNNY   84  62  47 CALM      30.07F
CLEARFIELD     MOSUNNY   86  66  51 NE6       30.06F
JOHNSTOWN      MOSUNNY   82  62  50 CALM      30.10S
ALTOONA        MOSUNNY   85  67  54 E3        30.06F
STATE COLLEGE  MOSUNNY   88  66  48 CALM      30.04F
WILLIAMSPORT   SUNNY     90  68  48 S3        29.99F
SELINSGROVE    SUNNY     88  72  58 CALM      30.00F
FT INDIANTOWN  PTSUNNY   89  67  49 SE5       30.00F
CAPITAL CITY   SUNNY     90  66  45 E7        29.99F
HARRISBURG     MOSUNNY   89  67  47 E7        29.99S
YORK           MOSUNNY   86  68  54 NE7       30.01S
$$

PAZ038>040-043-044-047-048-054-055-060>062-067>071-252200-
EASTERN PENNSYLVANIA

CITY           SKY/WX    TMP DP  RH WIND       PRES   REMARKS
SCRANTON       SUNNY     91  63  39 NE5       30.03F
MOUNT POCONO   SUNNY     82  66  58 E6        30.10F
ALLENTOWN      MOSUNNY   90  69  50 NE6       30.00F
QUAKERTOWN*    MOCLDY    86  68  54 E3        30.02S
READING        MOSUNNY   88  72  58 NE5       29.99S
LANCASTER      SUNNY     87  71  58 E5        30.00F
COATESVILLE    PTCLDY    86  68  54 CALM      30.03S
POTTSTOWN      MOSUNNY   86  67  52 NE6       30.02S
BLUE BELL      SUNNY     86  68  54 E3        30.01S
DOYLESTOWN     SUNNY     88  69  53 N6        30.00F
WILLOW GROVE   NOT AVBL
NORTH PHILA    SUNNY     90  68  48 E9        30.00F
PHILADELPHIA   MOSUNNY   89  68  49 SE9       29.99R
$$



USA.gov is the U.S. government's official web portal to all federal, state and local government web resources and services.